This is the latest recevied weather packets stored in our database for station/object W8KVG. If no packets are shown the sender has not sent any weather packets the latest 1 day(s).
| Time | Temp. | Humidity | Pressure | Rain* | Wind** | Luminosity | Snow |
|---|---|---|---|---|---|---|---|
| 1778000604 | 22.78° C | 55% | 1007.2 hPa | 0 mm | 0 m/s | 229 W/m² | - |
| 1778000299 | 22.78° C | 52% | 1007.1 hPa | 0 mm | 1.79 m/s, 202° | 183 W/m² | - |
| 1777999995 | 22.78° C | 53% | 1006.9 hPa | 0 mm | 0.45 m/s, 309° | 697 W/m² | - |
| 1777999691 | 22.78° C | 52% | 1007 hPa | 0 mm | 1.79 m/s, 196° | 693 W/m² | - |
| 1777999388 | 22.78° C | 53% | 1006.9 hPa | 0 mm | 0 m/s | 266 W/m² | - |
| 1777999086 | 22.78° C | 53% | 1007.1 hPa | 0 mm | 0.45 m/s, 221° | 116 W/m² | - |
| 1777998785 | 22.78° C | 54% | 1007.1 hPa | 0 mm | 0.89 m/s, 247° | 160 W/m² | - |
| 1777998483 | 22.22° C | 54% | 1006.9 hPa | 0 mm | 0.89 m/s, 263° | 174 W/m² | - |
| 1777998179 | 21.67° C | 56% | 1007 hPa | 0 mm | 0.89 m/s, 228° | 135 W/m² | - |
| 1777997876 | 21.67° C | 55% | 1007.4 hPa | 0 mm | 2.24 m/s, 334° | 203 W/m² | - |
| 1777997573 | 21.67° C | 57% | 1007.5 hPa | 0 mm | 0.45 m/s, 229° | 205 W/m² | - |
| 1777997270 | 21.67° C | 57% | 1007.6 hPa | 0 mm | 1.34 m/s, 194° | 186 W/m² | - |
| 1777996968 | 21.67° C | 57% | 1007.5 hPa | 0 mm | 1.34 m/s, 197° | 160 W/m² | - |
| 1777996665 | 21.67° C | 57% | 1007.5 hPa | 0 mm | 0.45 m/s, 233° | 127 W/m² | - |
| 1777996361 | 21.11° C | 57% | 1007.4 hPa | 0 mm | 0 m/s | 166 W/m² | - |
| 1777996057 | 21.11° C | 58% | 1007.6 hPa | 0 mm | 0 m/s | 178 W/m² | - |
| 1777995753 | 21.11° C | 59% | 1007.6 hPa | 0 mm | 2.68 m/s, 211° | 172 W/m² | - |
| 1777995450 | 20.56° C | 60% | 1007.7 hPa | 0 mm | 1.34 m/s, 197° | 193 W/m² | - |
| 1777995147 | 21.11° C | 60% | 1007.8 hPa | 0 mm | 0.45 m/s, 206° | 124 W/m² | - |
| 1777994844 | 21.11° C | 60% | 1007.7 hPa | 0 mm | 1.34 m/s, 189° | 189 W/m² | - |
| 1777994541 | 20.56° C | 61% | 1007.5 hPa | 0 mm | 1.34 m/s, 354° | 169 W/m² | - |
| 1777994235 | 20.56° C | 61% | 1007.6 hPa | 0 mm | 0.89 m/s, 199° | 130 W/m² | - |
| 1777993933 | 20.56° C | 60% | 1007.4 hPa | 0 mm | 1.79 m/s, 197° | 145 W/m² | - |
| 1777993629 | 20.56° C | 60% | 1007.3 hPa | 0 mm | 0.89 m/s, 289° | 116 W/m² | - |
| 1777993327 | 20° C | 60% | 1007.2 hPa | 0 mm | 1.34 m/s, 234° | 172 W/m² | - |
* Rain latest hour (hover to see other rain measurements)
** Current wind speed in m/s (hover to see current wind gust speed)